Hourly Weather Roundup
Issued by NWS Central Illinois

Home | Current Version | Previous Version | Text Only | Print | Product List | Glossary On
Versions: 1 2 3 4 5 6 7 8 9 10 11 12 13 14 15 16 17 18 19 20 21 22 23 24 25 26 27 28 29 30 31 32 33 34 35 36 37 38 39 40 41 42 43 44 45 46 47 48 49 50
000
NZUS43 KILX 242010
HWRILX

Area Weather Roundup
National Weather Service Lincoln IL
300 PM CDT MON JUL 24 2017

NOTE:  "FAIR" indicates few or no clouds below 12,000 feet, with
       no sigificant weather and/or obstructions to visibility.


CITY           SKY/WX    TMP DP  RH WIND       PRES   REMARKS
Bloomington    PTSUNNY   78  66  66 NE9G17    30.04S HX  80
Champaign      CLOUDY    78  65  63 N5        30.02R HX  80
Danville       PTSUNNY   78  66  66 N3        29.99S HX  80
Decatur        PTSUNNY   79  66  64 NE8       30.01R HX  81
Effingham      PTSUNNY   84  66  53 N5        29.99F HX  86
Flora          PTSUNNY   86  67  52 N3        29.97S HX  89
Galesburg      CLOUDY    73  65  75 NE10      30.06R
Jacksonville   PTSUNNY   80  66  63 NE9       30.00S HX  82
Lacon          CLOUDY    74  64  70 N6        30.03S
Lawrenceville  SUNNY     85  69  58 N10       29.97R HX  89
Litchfield     PTSUNNY   83  65  54 E3        29.99S HX  85
$$


CITY           SKY/WX    TMP DP  RH WIND       PRES   REMARKS
Lincoln        CLOUDY    77  69  74 NE7       30.02S
Macomb         MOSUNNY   78  68  71 NE9       30.04S HX  80
Mattoon        MOSUNNY   81  69  67 N9        29.99S HX  84
Mt Carmel AP   MOSUNNY   84  70  63 N3        29.96S HX  88
Olney-Noble AP PTSUNNY   84  67  55 N8        29.98S HX  87
Paris AP       PTSUNNY   79  69  69 N6        30.02R HX  82
Peoria         CLOUDY    75  65  70 NE7       30.04R
Pontiac        CLOUDY    76  66  73 N6        30.04S
Rantoul        PTSUNNY   81  67  60 NE9       30.02R HX  84
Robinson       MOSUNNY   83  69  62 N6        29.98S HX  86
Springfield    MOSUNNY   82  70  66 N13       30.01S HX  86
Taylorville    PTSUNNY   80  69  69 NE10      30.00S HX  83
$$

...REGIONAL REPORTS...


CITY           SKY/WX    TMP DP  RH WIND       PRES   REMARKS
Chicago O`Hare PTSUNNY   73  58  59 NE14      30.05S
Kankakee       PTSUNNY   75  61  62 NE13      30.04S
Moline         CLOUDY    74  64  71 E7        30.05R
Mount Sterling CLOUDY    79  65  61 NE9       30.00S HX  81
Mount Vernon   MOSUNNY   89  67  47 VRB5      29.96S HX  92
Pittsfield     MOSUNNY   83  64  51 CALM      30.01R HX  85
Quincy         CLOUDY    82  62  50 N6        30.00S HX  83
Rockford       PTSUNNY   77  58  51 E6        30.07S
$$


CITY           SKY/WX    TMP DP  RH WIND       PRES   REMARKS
Burlington     SUNNY     79  68  69 NE12      30.02S HX  81
Cedar Rapids   PTSUNNY   77  65  66 SE7       30.03F
Des Moines     MOSUNNY   84  60  44 VRB7      30.00F HX  84
Kirksville     MOSUNNY   81  62  52 E5        30.02S HX  82
Ottumwa        SUNNY     83  58  42 E5        30.01F HX  83
St Louis       MOSUNNY   91  66  43 NW9       29.97F HX  93
$$


CITY           SKY/WX    TMP DP  RH WIND       PRES   REMARKS
Terre Haute    MOSUNNY   82  66  58 N8        29.99R HX  84
Evansville     MOSUNNY   91  65  41 N8        29.94S HX  93
Indianapolis   MOSUNNY   82  64  54 N9        29.98S HX  83
Lafayette      PTSUNNY   78  64  61 N8        30.00R HX  80
Madison        PTSUNNY   75  58  55 NE6       30.07S
Milwaukee      MOSUNNY   70  61  73 N14       30.08S
$$






USA.gov is the U.S. government's official web portal to all federal, state and local government web resources and services.